Tracking 31027 objects as of 19-Jul-2025
HD Live streaming from Space Station
objects crossing your sky now

STARLINK-2081

Track STARLINK-2081 now!
10-day predictions
STARLINK-2081 is classified as:


NORAD ID: 47366
Int'l Code: 2021-005T
Perigee: 553.4 km
Apogee: 555.1 km
Inclination: 53.1 °
Period: 95.6 minutes
Semi major axis: 6925 km
RCS: Unknown
Launch date: January 20, 2021
Source: United States (US)
Launch site: AIR FORCE EASTERN TEST RANGE (AFETR)
Your satellite tracking list
KORSAT 7
Track 1 satellite(s)




NASA's NSSDC Master Catalog

Two Line Element Set (TLE):
1 47366U 21005T   25199.79014363  .00002796  00000-0  20640-3 0  9992
2 47366  53.0542  31.6341 0001199  83.6864 276.4262 15.06425047247781
Source of the keplerian elements: AFSPC